Tracking 18843 objects as of 20-November-2017
HD Live streaming from Space Station
objects crossing your sky now

FENGYUN 1C DEB

Track FENGYUN 1C DEB now!
10-day predictions


NORAD ID: 31966
Int'l Code: 1999-025CNT
Perigee: 658.6 km
Apogee: 833.2 km
Inclination: 99.0 °
Period: 99.6 minutes
Semi major axis: 7116 km
RCS: 0.0117 m2 (small)
Launch date: May 10, 1999
Source: People's Republic of China (PRC)
Launch site: Taiyaun Space Center, China (TSC)

Note: This is SATELLITE DEBRIS
aabbcc
Your satellite tracking list
Your tracking list is empty




NASA's NSSDC Master Catalog

Two Line Element Set (TLE):
1 31966U 99025CNT 17323.97223639  .00000458  00000-0  13103-3 0  9995
2 31966  98.9812 226.7775 0122689 113.0109 248.4076 14.46001768547175
Source of the keplerian elements: AFSPC